| time (UTC) | temp C | wind direction | speed KPH | gust KPH | rain 1hr cm | rain 24hr cm | rain mn cm | humidity % | barometer mb |
| 20260507030007 | 10 | 287 | 8.0 | 17.7 | 0.05 | 0.48 | 0.48 | 89 | 1006.8 |
| 20260507024549 | 11 | 316 | 9.7 | 25.7 | 0.08 | 0.48 | 0.48 | 90 | 1006.4 |
| 20260507023038 | 11 | 322 | 9.7 | 24.1 | 0.05 | 0.46 | 0.46 | 91 | 1006.6 |
| 20260507021519 | 12 | 277 | 8.0 | 20.9 | 0.03 | 0.43 | 0.43 | 91 | 1006.9 |
| 20260507020045 | 12 | 298 | 6.4 | 22.5 | 0.03 | 0.43 | 0.43 | 92 | 1006.2 |
| 20260507014520 | 13 | 292 | 4.8 | 17.7 | 0.00 | 0.41 | 0.41 | 92 | 1005.9 |
| 20260507013053 | 13 | 223 | 4.8 | 22.5 | 0.00 | 0.41 | 0.41 | 93 | 1006.1 |
| 20260507011529 | 13 | 267 | 3.2 | 12.9 | 0.00 | 0.41 | 0.41 | 92 | 1005.6 |
| 20260507010055 | 13 | 189 | 4.8 | 12.9 | 0.00 | 0.41 | 0.41 | 92 | 1005.6 |
| 20260507004523 | 13 | 206 | 0.0 | 17.7 | 0.00 | 0.41 | 0.41 | 92 | 1005.5 |
| 20260507003055 | 13 | 195 | 3.2 | 12.9 | 0.00 | 0.41 | 0.41 | 92 | 1005.3 |
| 20260507001534 | 13 | 197 | 3.2 | 16.1 | 0.00 | 0.41 | 0.41 | 92 | 1005.0 |
| 20260507000004 | 13 | 153 | 4.8 | 12.9 | 0.00 | 0.41 | 0.41 | 92 | 1005.0 |
| 20260506234543 | 13 | 197 | 3.2 | 12.9 | 0.00 | 0.41 | 0.41 | 92 | 1005.0 |
| 20260506233006 | 13 | 234 | 4.8 | 16.1 | 0.00 | 0.41 | 0.41 | 92 | 1004.8 |
| 20260506231537 | 13 | 189 | 1.6 | 14.5 | 0.00 | 0.41 | 0.41 | 92 | 1004.7 |
| 20260506230010 | 13 | 202 | 3.2 | 12.9 | 0.00 | 0.41 | 0.41 | 92 | 1004.6 |
| 20260506224545 | 13 | 206 | 1.6 | 16.1 | 0.00 | 0.41 | 0.41 | 92 | 1004.7 |
| 20260506223016 | 13 | 225 | 4.8 | 16.1 | 0.00 | 0.41 | 0.41 | 92 | 1005.0 |
| 20260506221541 | 13 | 196 | 4.8 | 19.3 | 0.00 | 0.41 | 0.41 | 91 | 1004.9 |
| 20260506220009 | 13 | 207 | 3.2 | 16.1 | 0.03 | 0.41 | 0.41 | 91 | 1005.0 |
| 20260506214547 | 13 | 198 | 6.4 | 16.1 | 0.08 | 0.41 | 0.41 | 91 | 1004.9 |
| 20260506213022 | 13 | 214 | 4.8 | 25.7 | 0.10 | 0.41 | 0.41 | 91 | 1005.0 |
| 20260506211549 | 13 | 273 | 4.8 | 14.5 | 0.15 | 0.41 | 0.41 | 91 | 1004.9 |
| 20260506210023 | 13 | 265 | 3.2 | 14.5 | 0.20 | 0.38 | 0.38 | 91 | 1005.1 |
| 20260506204501 | 14 | 181 | 4.8 | 14.5 | 0.18 | 0.33 | 0.33 | 90 | 1005.2 |
| 20260506203035 | 14 | 163 | 6.4 | 17.7 | 0.20 | 0.30 | 0.30 | 90 | 1005.3 |
| 20260506201612 | 14 | 199 | 3.2 | 14.5 | 0.18 | 0.25 | 0.25 | 90 | 1005.6 |
| 20260506200057 | 15 | 209 | 1.6 | 25.7 | 0.10 | 0.18 | 0.18 | 90 | 1005.6 |
| 20260506194526 | 15 | 182 | 3.2 | 12.9 | 0.10 | 0.15 | 0.15 | 90 | 1005.8 |
| 20260506193016 | 15 | 185 | 1.6 | 9.7 | 0.05 | 0.10 | 0.10 | 89 | 1005.9 |
| 20260506191559 | 15 | 238 | 4.8 | 9.7 | 0.03 | 0.08 | 0.08 | 88 | 1005.9 |
| 20260506190044 | 15 | 153 | 3.2 | 11.3 | 0.05 | 0.08 | 0.08 | 88 | 1005.9 |
| 20260506184531 | 15 | 216 | 3.2 | 22.5 | 0.05 | 0.05 | 0.05 | 88 | 1005.7 |
| 20260506183015 | 15 | 173 | 3.2 | 12.9 | 0.05 | 0.05 | 0.05 | 87 | 1006.0 |
| 20260506181507 | 16 | 211 | 4.8 | 11.3 | 0.05 | 0.05 | 0.05 | 85 | 1006.3 |
| 20260506180053 | 16 | 233 | 1.6 | 8.0 | 0.03 | 0.03 | 0.03 | 85 | 1006.6 |
| 20260506174539 | 16 | 231 | 1.6 | 9.7 | 0.00 | 0.00 | 0.00 | 82 | 1006.9 |
| 20260506173025 | 17 | 212 | 1.6 | 8.0 | 0.00 | 0.00 | 0.00 | 79 | 1007.2 |
| 20260506170038 | 18 | 206 | 6.4 | 19.3 | 0.00 | 0.00 | 0.00 | 70 | 1007.0 |
| 20260506164506 | 18 | 190 | 4.8 | 16.1 | 0.00 | 0.00 | 0.00 | 70 | 1007.1 |
| 20260506163038 | 18 | 211 | 3.2 | 14.5 | 0.00 | 0.00 | 0.00 | 70 | 1007.1 |
| 20260506161509 | 18 | 209 | 4.8 | 17.7 | 0.00 | 0.00 | 0.00 | 70 | 1007.5 |
| 20260506160045 | 18 | 186 | 4.8 | 16.1 | 0.00 | 0.00 | 0.00 | 70 | 1007.6 |
| 20260506154516 | 18 | 211 | 8.0 | 25.7 | 0.00 | 0.00 | 0.00 | 70 | 1007.8 |
| 20260506153047 | 18 | 225 | 4.8 | 16.1 | 0.00 | 0.00 | 0.00 | 70 | 1008.0 |
| 20260506151530 | 18 | 222 | 4.8 | 16.1 | 0.00 | 0.00 | 0.00 | 70 | 1008.1 |
| 20260506150050 | 18 | 204 | 3.2 | 20.9 | 0.00 | 0.00 | 0.00 | 69 | 1008.2 |
| 20260506144512 | 18 | 238 | 4.8 | 20.9 | 0.00 | 0.00 | 0.00 | 68 | 1008.3 |
| 20260506143045 | 18 | 204 | 4.8 | 19.3 | 0.00 | 0.00 | 0.00 | 69 | 1008.1 |
| 20260506141508 | 19 | 180 | 8.0 | 24.1 | 0.00 | 0.00 | 0.00 | 68 | 1008.0 |
| 20260506140039 | 18 | 202 | 4.8 | 16.1 | 0.00 | 0.00 | 0.00 | 70 | 1007.8 |
| 20260506134518 | 18 | 221 | 8.0 | 29.0 | 0.00 | 0.00 | 0.00 | 72 | 1007.7 |
| 20260506133051 | 17 | 250 | 3.2 | 24.1 | 0.00 | 0.00 | 0.00 | 74 | 1008.0 |
| 20260506131525 | 17 | 184 | 6.4 | 20.9 | 0.00 | 0.00 | 0.00 | 75 | 1008.2 |
| 20260506130110 | 17 | 186 | 4.8 | 14.5 | 0.00 | 0.00 | 0.00 | 76 | 1008.3 |
| 20260506124522 | 16 | 202 | 4.8 | 16.1 | 0.00 | 0.00 | 0.00 | 78 | 1008.4 |
| 20260506123054 | 16 | 180 | 3.2 | 17.7 | 0.00 | 0.00 | 0.00 | 79 | 1008.6 |
| 20260506121525 | 15 | 225 | 4.8 | 14.5 | 0.00 | 0.00 | 0.00 | 81 | 1008.4 |
| 20260506120100 | 15 | 186 | 6.4 | 17.7 | 0.00 | 0.00 | 0.00 | 81 | 1008.5 |
| 20260506114538 | 15 | 242 | 3.2 | 14.5 | 0.00 | 0.00 | 0.00 | 81 | 1008.8 |
| 20260506113106 | 14 | 173 | 4.8 | 22.5 | 0.00 | 0.00 | 0.00 | 83 | 1008.7 |
| 20260506111529 | 14 | 202 | 3.2 | 8.0 | 0.00 | 0.00 | 0.00 | 83 | 1009.0 |
| 20260506110050 | 13 | 242 | 1.6 | 14.5 | 0.00 | 0.00 | 0.00 | 83 | 1008.9 |
| 20260506104626 | 13 | 199 | 4.8 | 8.0 | 0.00 | 0.00 | 0.00 | 84 | 1008.9 |
| 20260506103102 | 13 | 191 | 0.0 | 11.3 | 0.00 | 0.00 | 0.00 | 84 | 1008.8 |
| 20260506101554 | 13 | 168 | 4.8 | 12.9 | 0.00 | 0.00 | 0.00 | 83 | 1008.7 |
| 20260506100024 | 13 | 215 | 1.6 | 16.1 | 0.00 | 0.00 | 0.00 | 82 | 1008.7 |
| 20260506094514 | 13 | 186 | 4.8 | 11.3 | 0.00 | 0.00 | 0.00 | 82 | 1008.7 |
| 20260506093052 | 13 | 186 | 3.2 | 9.7 | 0.00 | 0.00 | 0.00 | 81 | 1008.6 |
| 20260506091534 | 13 | 184 | 4.8 | 12.9 | 0.00 | 0.00 | 0.00 | 81 | 1008.5 |
| 20260506090008 | 13 | 196 | 1.6 | 14.5 | 0.00 | 0.00 | 0.00 | 80 | 1008.7 |
| 20260506084553 | 13 | 131 | 3.2 | 12.9 | 0.00 | 0.00 | 0.00 | 79 | 1008.6 |
| 20260506083036 | 13 | 194 | 3.2 | 12.9 | 0.00 | 0.00 | 0.00 | 79 | 1008.8 |
| 20260506081514 | 13 | 193 | 3.2 | 17.7 | 0.00 | 0.00 | 0.00 | 77 | 1008.8 |
| 20260506073103 | 14 | 175 | 3.2 | 11.3 | 0.00 | 0.00 | 0.00 | 75 | 1009.0 |
| 20260506071524 | 14 | 219 | 3.2 | 17.7 | 0.00 | 0.00 | 0.00 | 75 | 1008.8 |
| 20260506061535 | 15 | 198 | 3.2 | 6.4 | 0.00 | 0.00 | 0.00 | 71 | 1008.8 |
| 20260506044542 | 15 | 190 | 1.6 | 12.9 | 0.00 | 0.00 | 0.00 | 67 | 1009.0 |
| 20260506043013 | 16 | 186 | 1.6 | 6.4 | 0.00 | 0.00 | 0.00 | 66 | 1009.1 |
| 20260506041556 | 16 | 192 | 3.2 | 16.1 | 0.00 | 0.00 | 0.00 | 65 | 1009.2 |
| 20260506040022 | 16 | 164 | 1.6 | 14.5 | 0.00 | 0.00 | 0.00 | 64 | 1009.2 |
| 20260506034556 | 16 | 194 | 3.2 | 14.5 | 0.00 | 0.00 | 0.00 | 63 | 1009.0 |
| 20260506033034 | 16 | 204 | 3.2 | 9.7 | 0.00 | 0.00 | 0.00 | 63 | 1009.0 |
| 20260506031606 | 16 | 225 | 0.0 | 11.3 | 0.00 | 0.00 | 0.00 | 63 | 1009.2 |